Back to catalog

STARLINK-36868

AliveCommunicationsSSO
NORAD 68120·PAYLOAD·🇺🇸 United States

Launched Mar 8, 2026 from Vandenberg Space Force Base

Loading…

Next Passes (next 24 hours)

TLE

FreshSource: CelesTrak SupGP

Epoch: Sep 14, 2026, 21:18 UTC

1 68120C 26044V   26257.88798611 -.00012585  00000+0 -39061-3 0  2574
2 68120  97.2852 216.9606 0002272  92.7201 152.2750 15.33448138    19

Track STARLINK-36868 in real time with AllMySat

Download on the App Store